Time,TemperatureF,DewpointF,PressureIn,WindDirection,WindDirectionDegrees,WindSpeedMPH,WindSpeedGustMPH,Humidity,HourlyPrecipIn,Conditions,Clouds,dailyrainin,SoftwareType,DateUTC
2013-03-05 00:00:00,32.1,22.4,30.09,East,82,1.0,3.0,67,0.00,,,0.00,Wunderground v.1.15,2013-03-05 05:00:00,
2013-03-05 00:06:00,32.1,22.7,30.09,East,91,1.0,4.0,68,0.00,,,0.00,Wunderground v.1.15,2013-03-05 05:06:00,
2013-03-05 00:07:00,32.1,22.7,30.09,East,84,3.0,4.0,68,0.00,,,0.00,Wunderground v.1.15,2013-03-05 05:07:00,
2013-03-05 00:13:00,32.1,22.7,30.09,ENE,75,3.0,5.0,68,0.00,,,0.00,Wunderground v.1.15,2013-03-05 05:13:00,
2013-03-05 00:19:00,32.1,23.1,30.09,ENE,78,1.0,5.0,69,0.00,,,0.00,Wunderground v.1.15,2013-03-05 05:19:00,
2013-03-05 00:24:00,32.1,23.1,30.09,East,79,3.0,4.0,69,0.00,,,0.00,Wunderground v.1.15,2013-03-05 05:24:00,
2013-03-05 00:29:00,32.1,23.1,30.08,ENE,76,1.0,4.0,69,0.00,,,0.00,Wunderground v.1.15,2013-03-05 05:29:00,
2013-03-05 00:34:00,32.0,23.0,30.08,East,88,3.0,3.0,69,0.00,,,0.00,Wunderground v.1.15,2013-03-05 05:34:00,
2013-03-05 00:39:00,32.1,23.4,30.08,ENE,67,3.0,5.0,70,0.00,,,0.00,Wunderground v.1.15,2013-03-05 05:39:00,
2013-03-05 00:45:00,32.0,23.0,30.08,East,87,5.0,7.0,69,0.00,,,0.00,Wunderground v.1.15,2013-03-05 05:45:00,
2013-03-05 00:50:00,32.0,23.0,30.07,East,97,6.0,6.0,69,0.00,,,0.00,Wunderground v.1.15,2013-03-05 05:50:00,
2013-03-05 00:55:00,32.0,23.3,30.07,ENE,75,5.0,7.0,70,0.00,,,0.00,Wunderground v.1.15,2013-03-05 05:55:00,
2013-03-05 01:00:00,32.0,23.3,30.07,East,79,5.0,5.0,70,0.00,,,0.00,Wunderground v.1.15,2013-03-05 06:00:00,
2013-03-05 01:06:00,32.0,23.0,30.07,East,92,6.0,7.0,69,0.00,,,0.00,Wunderground v.1.15,2013-03-05 06:06:00,
2013-03-05 01:11:00,32.0,23.0,30.06,ENE,78,3.0,5.0,69,0.00,,,0.00,Wunderground v.1.15,2013-03-05 06:11:00,
2013-03-05 01:16:00,32.0,23.0,30.06,East,90,5.0,7.0,69,0.00,,,0.00,Wunderground v.1.15,2013-03-05 06:16:00,
2013-03-05 01:22:00,32.0,23.3,30.06,East,80,2.0,6.0,70,0.00,,,0.00,Wunderground v.1.15,2013-03-05 06:22:00,
2013-03-05 01:27:00,32.1,23.4,30.06,East,90,5.0,6.0,70,0.00,,,0.00,Wunderground v.1.15,2013-03-05 06:27:00,
2013-03-05 01:33:00,32.1,23.1,30.06,East,92,5.0,5.0,69,0.00,,,0.00,Wunderground v.1.15,2013-03-05 06:33:00,
2013-03-05 01:38:00,32.1,23.1,30.06,ESE,107,4.0,5.0,69,0.00,,,0.00,Wunderground v.1.15,2013-03-05 06:38:00,
2013-03-05 01:43:00,32.1,23.1,30.06,East,98,5.0,5.0,69,0.00,,,0.00,Wunderground v.1.15,2013-03-05 06:43:00,
2013-03-05 01:48:00,32.1,23.4,30.06,ESE,102,3.0,7.0,70,0.00,,,0.00,Wunderground v.1.15,2013-03-05 06:48:00,
2013-03-05 01:53:00,32.1,23.4,30.06,East,92,6.0,7.0,70,0.00,,,0.00,Wunderground v.1.15,2013-03-05 06:53:00,
2013-03-05 01:58:00,32.1,23.4,30.06,East,88,5.0,7.0,70,0.00,,,0.00,Wunderground v.1.15,2013-03-05 06:58:00,
2013-03-05 02:03:00,32.1,23.4,30.05,ESE,103,4.0,5.0,70,0.00,,,0.00,Wunderground v.1.15,2013-03-05 07:03:00,
2013-03-05 02:08:00,32.1,23.4,30.05,ENE,60,4.0,8.0,70,0.00,,,0.00,Wunderground v.1.15,2013-03-05 07:08:00,
2013-03-05 02:13:00,32.1,23.4,30.05,East,90,2.0,6.0,70,0.00,,,0.00,Wunderground v.1.15,2013-03-05 07:13:00,
2013-03-05 02:18:00,32.1,23.4,30.05,East,91,2.0,6.0,70,0.00,,,0.00,Wunderground v.1.15,2013-03-05 07:18:00,
2013-03-05 02:23:00,32.1,23.4,30.05,East,82,3.0,8.0,70,0.00,,,0.00,Wunderground v.1.15,2013-03-05 07:23:00,
2013-03-05 02:28:00,32.1,23.8,30.04,East,94,6.0,8.0,71,0.00,,,0.00,Wunderground v.1.15,2013-03-05 07:28:00,
2013-03-05 02:33:00,32.1,23.8,30.04,East,92,7.0,8.0,71,0.00,,,0.00,Wunderground v.1.15,2013-03-05 07:33:00,
2013-03-05 02:38:00,32.1,23.8,30.04,East,100,6.0,9.0,71,0.00,,,0.00,Wunderground v.1.15,2013-03-05 07:38:00,
2013-03-05 02:43:00,32.1,23.8,30.04,ESE,103,3.0,7.0,71,0.00,,,0.00,Wunderground v.1.15,2013-03-05 07:43:00,
2013-03-05 02:48:00,32.1,23.8,30.03,ENE,69,4.0,7.0,71,0.00,,,0.00,Wunderground v.1.15,2013-03-05 07:48:00,
2013-03-05 02:53:00,32.1,23.8,30.03,East,80,6.0,10.0,71,0.00,,,0.00,Wunderground v.1.15,2013-03-05 07:53:00,
2013-03-05 02:58:00,32.1,23.8,30.03,East,92,3.0,10.0,71,0.00,,,0.00,Wunderground v.1.15,2013-03-05 07:58:00,
2013-03-05 03:03:00,32.1,23.8,30.02,ENE,69,4.0,8.0,71,0.00,,,0.00,Wunderground v.1.15,2013-03-05 08:03:00,
2013-03-05 03:08:00,32.1,23.8,30.02,ESE,103,5.0,10.0,71,0.00,,,0.00,Wunderground v.1.15,2013-03-05 08:08:00,
2013-03-05 03:13:00,32.1,23.8,30.02,East,96,3.0,9.0,71,0.00,,,0.00,Wunderground v.1.15,2013-03-05 08:13:00,
2013-03-05 03:18:00,32.1,23.8,30.01,East,84,5.0,9.0,71,0.00,,,0.00,Wunderground v.1.15,2013-03-05 08:18:00,
2013-03-05 03:23:00,32.1,23.8,30.01,ESE,105,3.0,8.0,71,0.00,,,0.00,Wunderground v.1.15,2013-03-05 08:23:00,
2013-03-05 03:28:00,32.1,23.8,30.01,East,101,7.0,9.0,71,0.00,,,0.00,Wunderground v.1.15,2013-03-05 08:28:00,
2013-03-05 03:34:00,32.1,23.4,30.01,East,86,2.0,7.0,70,0.00,,,0.00,Wunderground v.1.15,2013-03-05 08:34:00,
2013-03-05 03:39:00,32.0,23.7,30.01,East,92,5.0,8.0,71,0.00,,,0.00,Wunderground v.1.15,2013-03-05 08:39:00,
2013-03-05 03:44:00,32.0,23.7,30.01,East,88,6.0,8.0,71,0.00,,,0.00,Wunderground v.1.15,2013-03-05 08:44:00,
2013-03-05 03:49:00,32.0,24.0,30.01,ESE,113,3.0,9.0,72,0.00,,,0.00,Wunderground v.1.15,2013-03-05 08:49:00,
2013-03-05 03:54:00,32.0,23.7,30.00,ENE,67,1.0,8.0,71,0.00,,,0.00,Wunderground v.1.15,2013-03-05 08:54:00,
2013-03-05 03:59:00,32.0,23.7,30.00,ENE,70,5.0,10.0,71,0.00,,,0.00,Wunderground v.1.15,2013-03-05 08:59:00,
2013-03-05 04:04:00,32.0,23.7,30.00,East,94,7.0,8.0,71,0.00,,,0.00,Wunderground v.1.15,2013-03-05 09:04:00,
2013-03-05 04:09:00,32.0,23.7,30.00,ENE,73,7.0,11.0,71,0.00,,,0.00,Wunderground v.1.15,2013-03-05 09:09:00,
2013-03-05 04:14:00,31.9,23.6,29.99,East,100,10.0,11.0,71,0.00,,,0.00,Wunderground v.1.15,2013-03-05 09:14:00,
2013-03-05 04:19:00,31.9,23.2,29.99,ENE,74,8.0,11.0,70,0.00,,,0.00,Wunderground v.1.15,2013-03-05 09:19:00,
2013-03-05 04:24:00,31.9,23.2,29.99,East,90,9.0,13.0,70,0.00,,,0.00,Wunderground v.1.15,2013-03-05 09:24:00,
2013-03-05 04:29:00,31.9,23.2,29.99,ENE,78,7.0,13.0,70,0.00,,,0.00,Wunderground v.1.15,2013-03-05 09:29:00,
2013-03-05 04:34:00,31.9,23.2,29.99,ESE,111,8.0,14.0,70,0.00,,,0.00,Wunderground v.1.15,2013-03-05 09:34:00,
2013-03-05 04:39:00,32.0,23.3,29.99,ESE,118,5.0,14.0,70,0.00,,,0.00,Wunderground v.1.15,2013-03-05 09:39:00,
2013-03-05 04:44:00,32.0,23.3,29.98,East,79,5.0,13.0,70,0.00,,,0.00,Wunderground v.1.15,2013-03-05 09:44:00,
2013-03-05 04:49:00,32.0,23.3,29.98,East,85,7.0,13.0,70,0.00,,,0.00,Wunderground v.1.15,2013-03-05 09:49:00,
2013-03-05 04:54:00,32.1,23.1,29.98,East,86,5.0,15.0,69,0.00,,,0.00,Wunderground v.1.15,2013-03-05 09:54:00,
2013-03-05 04:59:00,32.1,23.1,29.98,East,100,13.0,15.0,69,0.00,,,0.00,Wunderground v.1.15,2013-03-05 09:59:00,
2013-03-05 05:05:00,32.2,23.2,29.98,East,86,14.0,14.0,69,0.00,,,0.00,Wunderground v.1.15,2013-03-05 10:05:00,
2013-03-05 05:10:00,32.2,22.8,29.98,ESE,116,9.0,14.0,68,0.00,,,0.00,Wunderground v.1.15,2013-03-05 10:10:00,
2013-03-05 05:15:00,32.3,22.9,29.98,ESE,105,5.0,16.0,68,0.00,,,0.00,Wunderground v.1.15,2013-03-05 10:15:00,
2013-03-05 05:20:00,32.3,22.9,29.98,ESE,113,4.0,16.0,68,0.00,,,0.00,Wunderground v.1.15,2013-03-05 10:20:00,
2013-03-05 05:25:00,32.3,22.9,29.98,East,93,9.0,14.0,68,0.00,,,0.00,Wunderground v.1.15,2013-03-05 10:25:00,
2013-03-05 05:30:00,32.4,23.0,29.97,ESE,102,8.0,8.0,68,0.00,,,0.00,Wunderground v.1.15,2013-03-05 10:30:00,
2013-03-05 05:35:00,32.3,22.9,29.98,ENE,76,8.0,11.0,68,0.00,,,0.00,Wunderground v.1.15,2013-03-05 10:35:00,
2013-03-05 05:40:00,32.4,23.0,29.97,ESE,109,5.0,7.0,68,0.00,,,0.00,Wunderground v.1.15,2013-03-05 10:40:00,
2013-03-05 05:45:00,32.4,22.7,29.97,East,86,8.0,11.0,67,0.00,,,0.00,Wunderground v.1.15,2013-03-05 10:45:00,
2013-03-05 05:50:00,32.5,22.8,29.97,East,80,5.0,7.0,67,0.00,,,0.00,Wunderground v.1.15,2013-03-05 10:50:00,
2013-03-05 05:55:00,32.5,22.8,29.97,ESE,108,5.0,10.0,67,0.00,,,0.00,Wunderground v.1.15,2013-03-05 10:55:00,
2013-03-05 06:00:00,32.6,22.8,29.97,East,98,5.0,9.0,67,0.00,,,0.00,Wunderground v.1.15,2013-03-05 11:00:00,
2013-03-05 06:05:00,32.5,22.8,29.97,ESE,115,4.0,12.0,67,0.00,,,0.00,Wunderground v.1.15,2013-03-05 11:05:00,
2013-03-05 06:10:00,32.6,22.8,29.97,East,92,7.0,9.0,67,0.00,,,0.00,Wunderground v.1.15,2013-03-05 11:10:00,
2013-03-05 06:15:00,32.6,22.8,29.97,ESE,111,4.0,11.0,67,0.00,,,0.00,Wunderground v.1.15,2013-03-05 11:15:00,
2013-03-05 06:20:00,32.6,22.8,29.96,ESE,112,9.0,12.0,67,0.00,,,0.00,Wunderground v.1.15,2013-03-05 11:20:00,
2013-03-05 06:25:00,32.5,22.8,29.96,ENE,78,8.0,14.0,67,0.00,,,0.00,Wunderground v.1.15,2013-03-05 11:25:00,
2013-03-05 06:30:00,32.5,22.8,29.96,East,95,8.0,10.0,67,0.00,,,0.00,Wunderground v.1.15,2013-03-05 11:30:00,
2013-03-05 06:35:00,32.5,22.8,29.96,ESE,111,5.0,16.0,67,0.00,,,0.00,Wunderground v.1.15,2013-03-05 11:35:00,
2013-03-05 06:40:00,32.5,22.8,29.95,ESE,113,11.0,14.0,67,0.00,,,0.00,Wunderground v.1.15,2013-03-05 11:40:00,
2013-03-05 06:45:00,32.5,22.8,29.95,NE,53,9.0,15.0,67,0.00,,,0.00,Wunderground v.1.15,2013-03-05 11:45:00,
2013-03-05 06:50:00,32.5,22.8,29.95,East,98,8.0,13.0,67,0.00,,,0.00,Wunderground v.1.15,2013-03-05 11:50:00,
2013-03-05 06:55:00,32.4,22.7,29.95,ESE,103,11.0,19.0,67,0.00,,,0.00,Wunderground v.1.15,2013-03-05 11:55:00,
2013-03-05 07:00:00,32.4,23.0,29.95,ESE,103,5.0,9.0,68,0.00,,,0.00,Wunderground v.1.15,2013-03-05 12:00:00,
2013-03-05 07:05:00,32.4,23.0,29.96,ESE,104,11.0,14.0,68,0.00,,,0.00,Wunderground v.1.15,2013-03-05 12:05:00,
2013-03-05 07:10:00,32.4,23.0,29.95,SE,131,8.0,9.0,68,0.00,,,0.00,Wunderground v.1.15,2013-03-05 12:10:00,
2013-03-05 07:15:00,32.4,23.0,29.95,ESE,107,9.0,17.0,68,0.00,,,0.00,Wunderground v.1.15,2013-03-05 12:15:00,
2013-03-05 07:20:00,32.4,23.0,29.95,East,101,5.0,9.0,68,0.00,,,0.00,Wunderground v.1.15,2013-03-05 12:20:00,
2013-03-05 07:25:00,32.4,23.0,29.95,ESE,102,5.0,14.0,68,0.00,,,0.00,Wunderground v.1.15,2013-03-05 12:25:00,
2013-03-05 07:30:00,32.4,23.0,29.95,ESE,123,8.0,11.0,68,0.00,,,0.00,Wunderground v.1.15,2013-03-05 12:30:00,
2013-03-05 07:35:00,32.4,23.0,29.95,ESE,102,9.0,14.0,68,0.00,,,0.00,Wunderground v.1.15,2013-03-05 12:35:00,
2013-03-05 07:40:00,32.4,23.0,29.95,East,93,10.0,14.0,68,0.00,,,0.00,Wunderground v.1.15,2013-03-05 12:40:00,
2013-03-05 07:45:00,32.4,23.4,29.95,East,98,8.0,16.0,69,0.00,,,0.00,Wunderground v.1.15,2013-03-05 12:45:00,
2013-03-05 07:51:00,32.3,23.3,29.95,East,101,10.0,13.0,69,0.00,,,0.00,Wunderground v.1.15,2013-03-05 12:51:00,
2013-03-05 07:56:00,32.3,23.3,29.95,ESE,103,7.0,14.0,69,0.00,,,0.00,Wunderground v.1.15,2013-03-05 12:56:00,
2013-03-05 08:01:00,32.3,23.3,29.95,East,93,8.0,14.0,69,0.00,,,0.00,Wunderground v.1.15,2013-03-05 13:01:00,
2013-03-05 08:06:00,32.3,23.3,29.95,ESE,115,8.0,14.0,69,0.00,,,0.00,Wunderground v.1.15,2013-03-05 13:06:00,
2013-03-05 08:11:00,32.3,23.3,29.95,ESE,113,10.0,12.0,69,0.00,,,0.00,Wunderground v.1.15,2013-03-05 13:11:00,
2013-03-05 08:16:00,32.3,23.3,29.95,East,94,6.0,12.0,69,0.00,,,0.00,Wunderground v.1.15,2013-03-05 13:16:00,
2013-03-05 08:21:00,32.3,23.3,29.95,East,96,11.0,11.0,69,0.00,,,0.00,Wunderground v.1.15,2013-03-05 13:21:00,
2013-03-05 08:26:00,32.3,23.3,29.94,East,99,10.0,13.0,69,0.00,,,0.00,Wunderground v.1.15,2013-03-05 13:26:00,
2013-03-05 08:31:00,32.3,22.9,29.94,SE,133,2.0,11.0,68,0.00,,,0.00,Wunderground v.1.15,2013-03-05 13:31:00,
2013-03-05 08:36:00,32.3,22.9,29.94,East,94,7.0,13.0,68,0.00,,,0.00,Wunderground v.1.15,2013-03-05 13:36:00,
2013-03-05 08:41:00,32.3,22.9,29.94,ENE,78,3.0,9.0,68,0.00,,,0.00,Wunderground v.1.15,2013-03-05 13:41:00,
2013-03-05 08:46:00,32.3,22.9,29.94,ESE,119,7.0,18.0,68,0.00,,,0.00,Wunderground v.1.15,2013-03-05 13:46:00,
2013-03-05 08:51:00,32.3,22.9,29.94,ESE,105,10.0,12.0,68,0.00,,,0.00,Wunderground v.1.15,2013-03-05 13:51:00,
2013-03-05 08:56:00,32.2,22.8,29.94,SE,126,9.0,17.0,68,0.00,,,0.00,Wunderground v.1.15,2013-03-05 13:56:00,
2013-03-05 09:01:00,32.1,22.7,29.94,ESE,119,8.0,11.0,68,0.00,,,0.00,Wunderground v.1.15,2013-03-05 14:01:00,
2013-03-05 09:06:00,32.2,22.8,29.94,ESE,107,9.0,14.0,68,0.00,,,0.00,Wunderground v.1.15,2013-03-05 14:06:00,
2013-03-05 09:11:00,32.3,22.9,29.94,East,96,10.0,12.0,68,0.00,,,0.00,Wunderground v.1.15,2013-03-05 14:11:00,
2013-03-05 09:16:00,32.2,22.8,29.94,ESE,111,10.0,18.0,68,0.00,,,0.00,Wunderground v.1.15,2013-03-05 14:16:00,
2013-03-05 09:21:00,32.3,23.3,29.94,SE,130,9.0,11.0,69,0.00,,,0.00,Wunderground v.1.15,2013-03-05 14:21:00,
2013-03-05 09:26:00,32.3,23.3,29.94,ESE,121,4.0,16.0,69,0.00,,,0.00,Wunderground v.1.15,2013-03-05 14:26:00,
2013-03-05 09:31:00,32.3,23.3,29.94,ESE,104,13.0,14.0,69,0.00,,,0.00,Wunderground v.1.15,2013-03-05 14:31:00,
2013-03-05 09:36:00,32.3,23.3,29.93,ESE,122,2.0,14.0,69,0.00,,,0.00,Wunderground v.1.15,2013-03-05 14:36:00,
2013-03-05 09:41:00,32.4,23.4,29.93,ESE,115,7.0,11.0,69,0.00,,,0.00,Wunderground v.1.15,2013-03-05 14:41:00,
2013-03-05 09:46:00,32.4,23.4,29.93,SE,142,7.0,15.0,69,0.00,,,0.00,Wunderground v.1.15,2013-03-05 14:46:00,
2013-03-05 09:51:00,32.6,23.9,29.93,East,83,8.0,12.0,70,0.00,,,0.00,Wunderground v.1.15,2013-03-05 14:51:00,
2013-03-05 09:56:00,32.6,23.9,29.93,SE,130,5.0,12.0,70,0.00,,,0.00,Wunderground v.1.15,2013-03-05 14:56:00,
2013-03-05 10:01:00,32.6,23.9,29.92,SE,136,9.0,12.0,70,0.00,,,0.00,Wunderground v.1.15,2013-03-05 15:01:00,
2013-03-05 10:06:00,32.6,24.2,29.92,SE,137,12.0,12.0,71,0.00,,,0.00,Wunderground v.1.15,2013-03-05 15:06:00,
2013-03-05 10:11:00,32.6,24.2,29.92,SE,126,8.0,10.0,71,0.00,,,0.00,Wunderground v.1.15,2013-03-05 15:11:00,
2013-03-05 10:16:00,32.4,24.0,29.92,ESE,105,11.0,16.0,71,0.00,,,0.00,Wunderground v.1.15,2013-03-05 15:16:00,
2013-03-05 10:21:00,32.2,24.2,29.92,East,93,10.0,14.0,72,0.00,,,0.00,Wunderground v.1.15,2013-03-05 15:21:00,
2013-03-05 10:27:00,32.1,24.7,29.92,ESE,115,13.0,14.0,74,0.00,,,0.00,Wunderground v.1.15,2013-03-05 15:27:00,
2013-03-05 10:32:00,31.9,24.9,29.92,ESE,104,9.0,18.0,75,0.00,,,0.00,Wunderground v.1.15,2013-03-05 15:32:00,
2013-03-05 10:37:00,31.5,25.1,29.92,SE,142,11.0,18.0,77,0.00,,,0.00,Wunderground v.1.15,2013-03-05 15:37:00,
2013-03-05 10:42:00,31.2,25.4,29.92,SE,138,4.0,15.0,79,0.00,,,0.00,Wunderground v.1.15,2013-03-05 15:42:00,
2013-03-05 10:47:00,31.1,26.0,29.92,ESE,109,8.0,15.0,81,0.00,,,0.00,Wunderground v.1.15,2013-03-05 15:47:00,
2013-03-05 10:52:00,30.9,26.1,29.92,SSE,159,2.0,8.0,82,0.00,,,0.00,Wunderground v.1.15,2013-03-05 15:52:00,
2013-03-05 10:57:00,30.8,26.5,29.92,East,83,6.0,10.0,84,0.00,,,0.00,Wunderground v.1.15,2013-03-05 15:57:00,
2013-03-05 11:02:00,30.6,26.3,29.92,SE,131,8.0,15.0,84,0.00,,,0.00,Wunderground v.1.15,2013-03-05 16:02:00,
2013-03-05 11:07:00,30.6,26.6,29.92,East,89,6.0,15.0,85,0.00,,,0.00,Wunderground v.1.15,2013-03-05 16:07:00,
2013-03-05 11:12:00,30.6,26.3,29.91,ESE,104,5.0,15.0,84,0.00,,,0.00,Wunderground v.1.15,2013-03-05 16:12:00,
2013-03-05 11:17:00,30.6,26.6,29.91,East,101,10.0,15.0,85,0.00,,,0.00,Wunderground v.1.15,2013-03-05 16:17:00,
2013-03-05 11:22:00,30.7,26.7,29.91,ENE,74,10.0,10.0,85,0.00,,,0.00,Wunderground v.1.15,2013-03-05 16:22:00,
2013-03-05 11:27:00,30.7,27.0,29.91,ESE,105,7.0,12.0,86,0.00,,,0.00,Wunderground v.1.15,2013-03-05 16:27:00,
2013-03-05 11:32:00,30.7,27.0,29.91,ESE,116,11.0,14.0,86,0.00,,,0.00,Wunderground v.1.15,2013-03-05 16:32:00,
2013-03-05 11:37:00,30.7,27.3,29.91,East,80,3.0,14.0,87,0.00,,,0.00,Wunderground v.1.15,2013-03-05 16:37:00,
2013-03-05 11:42:00,30.7,27.3,29.90,ESE,103,5.0,11.0,87,0.00,,,0.00,Wunderground v.1.15,2013-03-05 16:42:00,
2013-03-05 11:47:00,30.6,27.2,29.90,East,93,5.0,14.0,87,0.00,,,0.00,Wunderground v.1.15,2013-03-05 16:47:00,
2013-03-05 11:52:00,30.7,27.6,29.90,ENE,67,8.0,11.0,88,0.00,,,0.00,Wunderground v.1.15,2013-03-05 16:52:00,
2013-03-05 11:57:00,30.6,27.5,29.89,East,87,7.0,13.0,88,0.00,,,0.00,Wunderground v.1.15,2013-03-05 16:57:00,
2013-03-05 12:02:00,30.8,27.7,29.89,East,99,8.0,14.0,88,0.00,,,0.00,Wunderground v.1.15,2013-03-05 17:02:00,
2013-03-05 12:07:00,30.6,27.5,29.89,ENE,66,12.0,16.0,88,0.00,,,0.00,Wunderground v.1.15,2013-03-05 17:07:00,
2013-03-05 12:12:00,30.6,27.5,29.88,ESE,107,9.0,16.0,88,0.00,,,0.00,Wunderground v.1.15,2013-03-05 17:12:00,
2013-03-05 12:17:00,30.6,27.5,29.88,East,97,5.0,16.0,88,0.00,,,0.00,Wunderground v.1.15,2013-03-05 17:17:00,
2013-03-05 12:22:00,30.7,27.6,29.88,East,97,10.0,11.0,88,0.00,,,0.00,Wunderground v.1.15,2013-03-05 17:22:00,
2013-03-05 12:27:00,30.7,27.6,29.88,East,83,7.0,13.0,88,0.00,,,0.00,Wunderground v.1.15,2013-03-05 17:27:00,
2013-03-05 12:32:00,30.6,27.5,29.87,East,97,6.0,14.0,88,0.00,,,0.00,Wunderground v.1.15,2013-03-05 17:32:00,
2013-03-05 12:37:00,30.6,27.5,29.87,East,99,7.0,14.0,88,0.00,,,0.00,Wunderground v.1.15,2013-03-05 17:37:00,
2013-03-05 12:42:00,30.5,27.6,29.87,East,82,9.0,15.0,89,0.00,,,0.00,Wunderground v.1.15,2013-03-05 17:42:00,
2013-03-05 12:47:00,30.3,27.4,29.87,East,95,3.0,15.0,89,0.00,,,0.00,Wunderground v.1.15,2013-03-05 17:47:00,
2013-03-05 12:52:00,30.2,27.3,29.87,ESE,109,5.0,9.0,89,0.00,,,0.00,Wunderground v.1.15,2013-03-05 17:52:00,
2013-03-05 12:57:00,30.2,27.3,29.87,East,96,3.0,10.0,89,0.00,,,0.00,Wunderground v.1.15,2013-03-05 17:57:00,
2013-03-05 13:02:00,30.1,27.3,29.86,ENE,74,7.0,9.0,89,0.00,,,0.00,Wunderground v.1.15,2013-03-05 18:02:00,
2013-03-05 13:07:00,30.0,27.2,29.86,ESE,107,9.0,14.0,89,0.00,,,0.01,Wunderground v.1.15,2013-03-05 18:07:00,
2013-03-05 13:13:00,29.9,27.1,29.86,ESE,108,10.0,13.0,89,0.00,,,0.01,Wunderground v.1.15,2013-03-05 18:13:00,
2013-03-05 13:18:00,29.9,27.1,29.86,ENE,70,4.0,15.0,89,0.00,,,0.01,Wunderground v.1.15,2013-03-05 18:18:00,
2013-03-05 13:23:00,29.9,27.1,29.85,ENE,76,4.0,11.0,89,0.00,,,0.01,Wunderground v.1.15,2013-03-05 18:23:00,
2013-03-05 13:28:00,29.7,26.9,29.85,East,88,7.0,14.0,89,0.00,,,0.01,Wunderground v.1.15,2013-03-05 18:28:00,
2013-03-05 13:33:00,29.6,26.8,29.85,East,101,10.0,13.0,89,0.00,,,0.01,Wunderground v.1.15,2013-03-05 18:33:00,
2013-03-05 13:38:00,29.6,27.0,29.85,ESE,113,3.0,15.0,90,0.00,,,0.01,Wunderground v.1.15,2013-03-05 18:38:00,
2013-03-05 13:43:00,29.5,26.9,29.84,East,82,13.0,13.0,90,0.00,,,0.01,Wunderground v.1.15,2013-03-05 18:43:00,
2013-03-05 13:48:00,29.5,26.9,29.84,ENE,63,8.0,15.0,90,0.00,,,0.01,Wunderground v.1.15,2013-03-05 18:48:00,
2013-03-05 13:53:00,29.6,27.0,29.84,ENE,66,8.0,10.0,90,0.00,,,0.01,Wunderground v.1.15,2013-03-05 18:53:00,
2013-03-05 13:58:00,29.6,27.0,29.84,East,85,7.0,10.0,90,0.00,,,0.01,Wunderground v.1.15,2013-03-05 18:58:00,
2013-03-05 14:04:00,29.6,27.0,29.83,East,85,9.0,13.0,90,0.00,,,0.01,Wunderground v.1.15,2013-03-05 19:04:00,
2013-03-05 14:09:00,29.7,27.1,29.83,East,90,6.0,13.0,90,0.00,,,0.01,Wunderground v.1.15,2013-03-05 19:09:00,
2013-03-05 14:14:00,29.6,27.0,29.83,ESE,113,5.0,11.0,90,0.00,,,0.01,Wunderground v.1.15,2013-03-05 19:14:00,
2013-03-05 14:19:00,29.6,27.3,29.83,East,89,7.0,11.0,91,0.00,,,0.01,Wunderground v.1.15,2013-03-05 19:19:00,
2013-03-05 14:24:00,29.6,27.3,29.83,ENE,67,3.0,10.0,91,0.00,,,0.01,Wunderground v.1.15,2013-03-05 19:24:00,
2013-03-05 14:29:00,29.6,27.3,29.83,ENE,68,5.0,10.0,91,0.00,,,0.01,Wunderground v.1.15,2013-03-05 19:29:00,
2013-03-05 14:34:00,29.6,27.3,29.83,East,85,3.0,13.0,91,0.00,,,0.01,Wunderground v.1.15,2013-03-05 19:34:00,
2013-03-05 14:39:00,29.4,27.1,29.83,ESE,105,9.0,13.0,91,0.00,,,0.01,Wunderground v.1.15,2013-03-05 19:39:00,
2013-03-05 14:44:00,29.4,27.1,29.83,NE,54,3.0,10.0,91,0.00,,,0.01,Wunderground v.1.15,2013-03-05 19:44:00,
2013-03-05 14:49:00,29.3,27.0,29.83,NE,55,5.0,11.0,91,0.00,,,0.01,Wunderground v.1.15,2013-03-05 19:49:00,
2013-03-05 14:54:00,29.3,27.0,29.83,ENE,63,5.0,10.0,91,0.00,,,0.01,Wunderground v.1.15,2013-03-05 19:54:00,
2013-03-05 14:59:00,29.3,27.0,29.82,ENE,71,9.0,11.0,91,0.00,,,0.01,Wunderground v.1.15,2013-03-05 19:59:00,
2013-03-05 15:04:00,29.2,26.9,29.82,NE,55,4.0,14.0,91,0.00,,,0.01,Wunderground v.1.15,2013-03-05 20:04:00,
2013-03-05 15:09:00,29.1,26.8,29.82,ENE,66,2.0,14.0,91,0.00,,,0.01,Wunderground v.1.15,2013-03-05 20:09:00,
2013-03-05 15:14:00,29.1,26.8,29.82,NE,49,4.0,11.0,91,0.00,,,0.01,Wunderground v.1.15,2013-03-05 20:14:00,
2013-03-05 15:19:00,29.2,27.2,29.82,NE,55,4.0,12.0,92,0.00,,,0.01,Wunderground v.1.15,2013-03-05 20:19:00,
2013-03-05 15:25:00,29.0,27.0,29.82,NE,50,4.0,12.0,92,0.00,,,0.01,Wunderground v.1.15,2013-03-05 20:25:00,
2013-03-05 15:30:00,29.0,27.0,29.82,NE,39,7.0,7.0,92,0.00,,,0.01,Wunderground v.1.15,2013-03-05 20:30:00,
2013-03-05 15:35:00,29.1,27.1,29.82,NE,44,6.0,11.0,92,0.00,,,0.01,Wunderground v.1.15,2013-03-05 20:35:00,
2013-03-05 15:40:00,29.0,27.0,29.82,NE,35,5.0,7.0,92,0.00,,,0.01,Wunderground v.1.15,2013-03-05 20:40:00,
2013-03-05 15:45:00,29.0,27.0,29.82,ENE,66,7.0,12.0,92,0.00,,,0.01,Wunderground v.1.15,2013-03-05 20:45:00,
2013-03-05 15:50:00,29.0,27.0,29.82,NE,56,7.0,8.0,92,0.00,,,0.01,Wunderground v.1.15,2013-03-05 20:50:00,
2013-03-05 15:55:00,29.1,27.1,29.82,ENE,72,7.0,9.0,92,0.00,,,0.01,Wunderground v.1.15,2013-03-05 20:55:00,
2013-03-05 16:00:00,29.0,27.0,29.82,East,81,6.0,7.0,92,0.00,,,0.01,Wunderground v.1.15,2013-03-05 21:00:00,
2013-03-05 16:05:00,28.9,26.9,29.82,ENE,69,5.0,12.0,92,0.00,,,0.01,Wunderground v.1.15,2013-03-05 21:05:00,
2013-03-05 16:10:00,28.9,26.9,29.82,ENE,62,12.0,12.0,92,0.00,,,0.01,Wunderground v.1.15,2013-03-05 21:10:00,
2013-03-05 16:15:00,28.8,26.8,29.82,NE,55,5.0,12.0,92,0.00,,,0.01,Wunderground v.1.15,2013-03-05 21:15:00,
2013-03-05 16:20:00,28.8,26.8,29.81,NE,48,5.0,7.0,92,0.00,,,0.01,Wunderground v.1.15,2013-03-05 21:20:00,
2013-03-05 16:25:00,28.9,26.9,29.82,NE,44,3.0,10.0,92,0.00,,,0.01,Wunderground v.1.15,2013-03-05 21:25:00,
2013-03-05 16:30:00,28.9,26.9,29.82,NE,49,5.0,5.0,92,0.00,,,0.01,Wunderground v.1.15,2013-03-05 21:30:00,
2013-03-05 16:35:00,28.9,26.9,29.82,NE,37,4.0,11.0,92,0.00,,,0.01,Wunderground v.1.15,2013-03-05 21:35:00,
2013-03-05 16:40:00,28.9,26.9,29.82,NE,53,8.0,8.0,92,0.00,,,0.01,Wunderground v.1.15,2013-03-05 21:40:00,
2013-03-05 16:45:00,29.0,27.0,29.82,NE,46,4.0,11.0,92,0.00,,,0.01,Wunderground v.1.15,2013-03-05 21:45:00,
2013-03-05 16:50:00,29.0,27.2,29.82,NE,44,7.0,8.0,93,0.00,,,0.01,Wunderground v.1.15,2013-03-05 21:50:00,
2013-03-05 16:55:00,28.9,26.9,29.82,NE,49,5.0,9.0,92,0.00,,,0.01,Wunderground v.1.15,2013-03-05 21:55:00,
2013-03-05 17:00:00,28.9,27.1,29.82,NE,53,5.0,5.0,93,0.00,,,0.01,Wunderground v.1.15,2013-03-05 22:00:00,
2013-03-05 17:05:00,28.8,27.0,29.82,NE,51,7.0,11.0,93,0.00,,,0.01,Wunderground v.1.15,2013-03-05 22:05:00,
2013-03-05 17:10:00,28.8,26.8,29.82,East,82,8.0,9.0,92,0.00,,,0.01,Wunderground v.1.15,2013-03-05 22:10:00,
2013-03-05 17:15:00,28.7,26.7,29.82,NNE,19,7.0,11.0,92,0.00,,,0.01,Wunderground v.1.15,2013-03-05 22:15:00,
2013-03-05 17:20:00,28.7,26.7,29.82,ENE,63,5.0,9.0,92,0.00,,,0.01,Wunderground v.1.15,2013-03-05 22:20:00,
2013-03-05 17:25:00,28.7,26.7,29.83,East,80,6.0,12.0,92,0.00,,,0.01,Wunderground v.1.15,2013-03-05 22:25:00,
2013-03-05 17:30:00,28.7,26.9,29.83,NE,49,3.0,8.0,93,0.00,,,0.01,Wunderground v.1.15,2013-03-05 22:30:00,
2013-03-05 17:36:00,28.7,26.9,29.83,NE,49,6.0,9.0,93,0.00,,,0.01,Wunderground v.1.15,2013-03-05 22:36:00,
2013-03-05 17:41:00,28.7,26.9,29.83,NE,45,3.0,6.0,93,0.00,,,0.01,Wunderground v.1.15,2013-03-05 22:41:00,
2013-03-05 17:46:00,28.7,26.9,29.83,NE,56,5.0,9.0,93,0.00,,,0.01,Wunderground v.1.15,2013-03-05 22:46:00,
2013-03-05 17:51:00,28.7,26.9,29.83,ENE,66,2.0,5.0,93,0.00,,,0.01,Wunderground v.1.15,2013-03-05 22:51:00,
2013-03-05 17:56:00,28.8,27.0,29.83,NNE,24,4.0,7.0,93,0.00,,,0.01,Wunderground v.1.15,2013-03-05 22:56:00,
2013-03-05 18:01:00,28.7,26.9,29.83,NNE,32,4.0,7.0,93,0.00,,,0.01,Wunderground v.1.15,2013-03-05 23:01:00,
2013-03-05 18:06:00,28.7,26.9,29.82,NE,52,3.0,8.0,93,0.00,,,0.01,Wunderground v.1.15,2013-03-05 23:06:00,
2013-03-05 18:11:00,28.8,27.0,29.82,NE,46,1.0,7.0,93,0.00,,,0.01,Wunderground v.1.15,2013-03-05 23:11:00,
2013-03-05 18:16:00,28.8,27.0,29.82,NNE,27,11.0,11.0,93,0.00,,,0.01,Wunderground v.1.15,2013-03-05 23:16:00,
2013-03-05 18:21:00,28.9,27.1,29.83,NE,46,8.0,12.0,93,0.00,,,0.01,Wunderground v.1.15,2013-03-05 23:21:00,
2013-03-05 18:26:00,28.9,27.1,29.83,NE,47,8.0,12.0,93,0.00,,,0.01,Wunderground v.1.15,2013-03-05 23:26:00,
2013-03-05 18:31:00,29.0,27.2,29.83,NE,53,5.0,10.0,93,0.00,,,0.01,Wunderground v.1.15,2013-03-05 23:31:00,
2013-03-05 18:36:00,29.1,27.3,29.83,NE,44,4.0,11.0,93,0.00,,,0.01,Wunderground v.1.15,2013-03-05 23:36:00,
2013-03-05 18:41:00,29.1,27.3,29.83,NE,44,7.0,7.0,93,0.00,,,0.01,Wunderground v.1.15,2013-03-05 23:41:00,
2013-03-05 18:46:00,29.2,27.4,29.83,NE,47,5.0,8.0,93,0.00,,,0.01,Wunderground v.1.15,2013-03-05 23:46:00,
2013-03-05 18:51:00,29.2,27.7,29.83,NNE,15,6.0,9.0,94,0.00,,,0.01,Wunderground v.1.15,2013-03-05 23:51:00,
2013-03-05 18:56:00,29.3,27.8,29.83,NE,38,4.0,9.0,94,0.00,,,0.01,Wunderground v.1.15,2013-03-05 23:56:00,
2013-03-05 19:01:00,29.4,27.9,29.83,NE,42,8.0,8.0,94,0.00,,,0.01,Wunderground v.1.15,2013-03-06 00:01:00,
2013-03-05 19:06:00,29.5,28.0,29.83,NE,34,5.0,11.0,94,0.00,,,0.01,Wunderground v.1.15,2013-03-06 00:06:00,
2013-03-05 19:11:00,29.5,28.0,29.83,NNE,12,7.0,9.0,94,0.00,,,0.01,Wunderground v.1.15,2013-03-06 00:11:00,
2013-03-05 19:16:00,29.5,28.0,29.83,NNE,20,5.0,12.0,94,0.00,,,0.01,Wunderground v.1.15,2013-03-06 00:16:00,
2013-03-05 19:22:00,29.6,28.1,29.83,NE,53,8.0,10.0,94,0.00,,,0.01,Wunderground v.1.15,2013-03-06 00:22:00,
2013-03-05 19:27:00,29.6,28.1,29.83,NNE,20,3.0,11.0,94,0.00,,,0.01,Wunderground v.1.15,2013-03-06 00:27:00,
2013-03-05 19:32:00,29.6,28.1,29.83,NNE,27,5.0,12.0,94,0.00,,,0.01,Wunderground v.1.15,2013-03-06 00:32:00,
2013-03-05 19:37:00,29.5,28.0,29.83,NE,47,5.0,12.0,94,0.00,,,0.01,Wunderground v.1.15,2013-03-06 00:37:00,
2013-03-05 19:42:00,29.5,28.0,29.83,NE,51,4.0,10.0,94,0.00,,,0.01,Wunderground v.1.15,2013-03-06 00:42:00,
2013-03-05 19:47:00,29.5,28.0,29.83,NNE,20,6.0,13.0,94,0.00,,,0.01,Wunderground v.1.15,2013-03-06 00:47:00,
2013-03-05 19:52:00,29.4,27.9,29.83,NE,38,3.0,10.0,94,0.00,,,0.01,Wunderground v.1.15,2013-03-06 00:52:00,
2013-03-05 19:57:00,29.4,27.9,29.83,ENE,59,5.0,12.0,94,0.00,,,0.01,Wunderground v.1.15,2013-03-06 00:57:00,
2013-03-05 20:02:00,29.4,27.9,29.83,NE,52,6.0,11.0,94,0.00,,,0.01,Wunderground v.1.15,2013-03-06 01:02:00,
2013-03-05 20:07:00,29.4,27.9,29.83,ENE,65,11.0,15.0,94,0.00,,,0.01,Wunderground v.1.15,2013-03-06 01:07:00,
2013-03-05 20:12:00,29.4,27.9,29.83,NE,35,7.0,12.0,94,0.00,,,0.01,Wunderground v.1.15,2013-03-06 01:12:00,
2013-03-05 20:17:00,29.4,27.6,29.84,NE,44,11.0,13.0,93,0.00,,,0.01,Wunderground v.1.15,2013-03-06 01:17:00,
2013-03-05 20:22:00,29.4,27.6,29.83,North,11,8.0,17.0,93,0.00,,,0.01,Wunderground v.1.15,2013-03-06 01:22:00,
2013-03-05 20:27:00,29.4,27.6,29.83,NNE,22,12.0,17.0,93,0.00,,,0.01,Wunderground v.1.15,2013-03-06 01:27:00,
2013-03-05 20:32:00,29.4,27.6,29.83,NNE,30,7.0,17.0,93,0.00,,,0.01,Wunderground v.1.15,2013-03-06 01:32:00,
2013-03-05 20:37:00,29.4,27.6,29.83,NNE,23,11.0,17.0,93,0.00,,,0.01,Wunderground v.1.15,2013-03-06 01:37:00,
2013-03-05 20:43:00,29.4,27.6,29.83,NE,35,11.0,14.0,93,0.00,,,0.01,Wunderground v.1.15,2013-03-06 01:43:00,
2013-03-05 20:48:00,29.4,27.6,29.83,NE,36,6.0,14.0,93,0.00,,,0.01,Wunderground v.1.15,2013-03-06 01:48:00,
2013-03-05 20:53:00,29.4,27.6,29.84,NNE,20,4.0,14.0,93,0.00,,,0.01,Wunderground v.1.15,2013-03-06 01:53:00,
2013-03-05 20:58:00,29.4,27.6,29.84,ENE,66,4.0,14.0,93,0.00,,,0.01,Wunderground v.1.15,2013-03-06 01:58:00,
2013-03-05 21:03:00,29.4,27.6,29.84,North,351,5.0,13.0,93,0.00,,,0.01,Wunderground v.1.15,2013-03-06 02:03:00,
2013-03-05 21:08:00,29.3,27.5,29.84,NNE,21,9.0,13.0,93,0.00,,,0.01,Wunderground v.1.15,2013-03-06 02:08:00,
2013-03-05 21:13:00,29.4,27.9,29.85,North,360,8.0,13.0,94,0.00,,,0.01,Wunderground v.1.15,2013-03-06 02:13:00,
2013-03-05 21:18:00,29.4,27.9,29.85,NNE,27,8.0,13.0,94,0.00,,,0.01,Wunderground v.1.15,2013-03-06 02:18:00,
2013-03-05 21:23:00,29.4,27.9,29.85,NNE,29,6.0,13.0,94,0.00,,,0.01,Wunderground v.1.15,2013-03-06 02:23:00,
2013-03-05 21:28:00,29.3,27.8,29.86,North,5,7.0,15.0,94,0.00,,,0.01,Wunderground v.1.15,2013-03-06 02:28:00,
2013-03-05 21:33:00,29.2,27.7,29.86,NNE,26,5.0,9.0,94,0.00,,,0.01,Wunderground v.1.15,2013-03-06 02:33:00,
2013-03-05 21:38:00,29.2,27.7,29.86,North,355,4.0,14.0,94,0.00,,,0.01,Wunderground v.1.15,2013-03-06 02:38:00,
2013-03-05 21:43:00,29.1,27.6,29.86,North,5,8.0,13.0,94,0.00,,,0.01,Wunderground v.1.15,2013-03-06 02:43:00,
2013-03-05 21:48:00,29.0,27.5,29.87,North,9,6.0,14.0,94,0.00,,,0.01,Wunderground v.1.15,2013-03-06 02:48:00,
2013-03-05 21:53:00,28.9,27.4,29.87,North,5,10.0,13.0,94,0.00,,,0.01,Wunderground v.1.15,2013-03-06 02:53:00,
2013-03-05 21:58:00,28.9,27.4,29.87,NNW,348,6.0,13.0,94,0.00,,,0.01,Wunderground v.1.15,2013-03-06 02:58:00,
2013-03-05 22:03:00,28.9,27.4,29.87,NNE,13,8.0,10.0,94,0.00,,,0.01,Wunderground v.1.15,2013-03-06 03:03:00,
2013-03-05 22:08:00,28.8,27.3,29.88,NNW,336,7.0,13.0,94,0.00,,,0.01,Wunderground v.1.15,2013-03-06 03:08:00,
2013-03-05 22:13:00,28.7,27.2,29.88,NNE,22,10.0,13.0,94,0.00,,,0.01,Wunderground v.1.15,2013-03-06 03:13:00,
2013-03-05 22:18:00,28.8,27.3,29.88,North,9,6.0,16.0,94,0.00,,,0.01,Wunderground v.1.15,2013-03-06 03:18:00,
2013-03-05 22:23:00,28.7,27.2,29.88,NNE,19,5.0,13.0,94,0.00,,,0.01,Wunderground v.1.15,2013-03-06 03:23:00,
2013-03-05 22:28:00,28.6,27.1,29.89,NNE,17,14.0,16.0,94,0.00,,,0.01,Wunderground v.1.15,2013-03-06 03:28:00,
2013-03-05 22:33:00,28.5,27.0,29.89,North,360,7.0,15.0,94,0.00,,,0.01,Wunderground v.1.15,2013-03-06 03:33:00,
2013-03-05 22:38:00,28.5,27.0,29.89,NE,34,11.0,15.0,94,0.00,,,0.01,Wunderground v.1.15,2013-03-06 03:38:00,
2013-03-05 22:44:00,28.4,26.9,29.90,NNW,344,12.0,12.0,94,0.00,,,0.01,Wunderground v.1.15,2013-03-06 03:44:00,
2013-03-05 22:48:00,28.4,26.9,29.90,North,10,9.0,13.0,94,0.00,,,0.01,Wunderground v.1.15,2013-03-06 03:48:00,
2013-03-05 22:53:00,28.3,26.8,29.90,NNE,33,9.0,13.0,94,0.00,,,0.01,Wunderground v.1.15,2013-03-06 03:53:00,
2013-03-05 22:59:00,28.3,26.8,29.90,North,10,11.0,14.0,94,0.00,,,0.01,Wunderground v.1.15,2013-03-06 03:59:00,
2013-03-05 23:04:00,28.0,26.5,29.91,NNE,24,13.0,18.0,94,0.00,,,0.01,Wunderground v.1.15,2013-03-06 04:04:00,
2013-03-05 23:09:00,27.8,26.3,29.91,North,355,6.0,18.0,94,0.00,,,0.01,Wunderground v.1.15,2013-03-06 04:09:00,
2013-03-05 23:14:00,27.8,26.3,29.91,NNE,31,10.0,14.0,94,0.00,,,0.01,Wunderground v.1.15,2013-03-06 04:14:00,
2013-03-05 23:19:00,27.8,26.3,29.91,North,5,5.0,15.0,94,0.00,,,0.01,Wunderground v.1.15,2013-03-06 04:19:00,
2013-03-05 23:24:00,27.8,26.3,29.92,NNW,347,7.0,15.0,94,0.00,,,0.01,Wunderground v.1.15,2013-03-06 04:24:00,
2013-03-05 23:29:00,27.8,26.3,29.92,North,5,7.0,16.0,94,0.00,,,0.01,Wunderground v.1.15,2013-03-06 04:29:00,
2013-03-05 23:34:00,27.8,26.3,29.92,North,355,6.0,10.0,94,0.00,,,0.01,Wunderground v.1.15,2013-03-06 04:34:00,
2013-03-05 23:39:00,27.9,26.1,29.92,North,11,6.0,11.0,93,0.00,,,0.01,Wunderground v.1.15,2013-03-06 04:39:00,
2013-03-05 23:44:00,27.9,26.1,29.92,North,5,8.0,15.0,93,0.00,,,0.01,Wunderground v.1.15,2013-03-06 04:44:00,
2013-03-05 23:49:00,28.0,26.2,29.92,NNE,17,5.0,15.0,93,0.00,,,0.01,Wunderground v.1.15,2013-03-06 04:49:00,
2013-03-05 23:54:00,28.0,26.2,29.92,NNE,22,9.0,10.0,93,0.00,,,0.01,Wunderground v.1.15,2013-03-06 04:54:00,
2013-03-05 23:59:00,27.9,25.9,29.93,North,360,6.0,17.0,92,0.00,,,0.00,Wunderground v.1.15,2013-03-06 04:59:00,